Home   Weather   Gainesville   Past weeks
Flag for USA

Past Weather in Gainesville, Georgia, USA — Yesterday and Last 2 Weeks

Now
48 °F

Passing clouds.


Feels Like: 45 °F
Forecast: 49 / 42 °F
Wind: 6 mph from East

Location: Gilmer Memorial Airport

Current Time: Dec 7, 2019 at 10:29:25 pm

Latest Report: Dec 7, 2019 at 9:53 pm


Visibility: 10 mi

Pressure: 30.30 "Hg

Humidity: 71%

Dew Point: 39 °F

Location of GainesvilleLocation

Past Weather in Gainesville — Graph

°F

Gainesville Temperature Yesterday

Maximum temperature yesterday: 55 °F (at 1:53 pm)
Minimum temperature yesterday: 45 °F (at 1:53 am)
Average temperature yesterday: 50 °F

High & Low Weather Summary for the Past Weeks

 TemperatureHumidityPressure
High71 °F (Nov 27, 1:53 pm)100% (Nov 22, 8:34 pm)30.30 "Hg (Nov 22, 8:34 pm)
Low32 °F (Dec 2, 11:53 pm)16% (Nov 27, 3:53 pm)29.57 "Hg (Dec 1, 2:53 pm)
Average52 °F68%29.97 "Hg
* Reported Nov 22 8:34 pm — Dec 7 8:53 pm, Gainesville. Weather by CustomWeather, © 2019

Note: Actual official high and low records may vary slightly from our data, if they occured in-between our weather recording intervals... More about our weather records

Gainesville Weather History for the Previous 24 Hours

Scroll right to see more
 ConditionsComfort  
Time TempWeatherWind HumidityBarometerVisibility
8:53 pm
Sat, Dec 7
49 °FPassing clouds.5 mph69%30.30 "Hg10 mi
7:53 pm52 °FClear.5 mph61%30.29 "Hg10 mi
6:53 pm53 °FClear.5 mph59%30.27 "Hg10 mi
5:53 pm55 °FClear.3 mph55%30.25 "Hg10 mi
4:53 pm58 °FSunny.7 mph50%30.24 "Hg10 mi
3:53 pm59 °FSunny.6 mph48%30.24 "Hg10 mi
2:53 pm61 °FPassing clouds.7 mph44%30.23 "Hg10 mi
1:53 pm59 °FOvercast.9 mph49%30.23 "Hg10 mi
12:53 pm58 °FOvercast.6 mph50%30.26 "Hg10 mi
11:53 am57 °FOvercast.10 mph51%30.27 "Hg10 mi
10:53 am56 °FPartly sunny.14 mph53%30.28 "Hg10 mi
9:53 am53 °FSunny.9 mph59%30.27 "Hg10 mi
8:53 am50 °FSunny.7 mph71%30.25 "Hg10 mi
7:53 am46 °FSunny.3 mph86%30.24 "Hg10 mi
6:53 am47 °FOvercast.No wind90%30.22 "Hg10 mi
5:53 am48 °FOvercast.No wind86%30.20 "Hg10 mi
4:53 am49 °FOvercast.No wind86%30.19 "Hg10 mi
3:53 am48 °FOvercast.No wind86%30.19 "Hg10 mi
2:53 am48 °FOvercast.No wind77%30.19 "Hg7 mi
1:53 am48 °FClear.No wind71%30.18 "Hg10 mi
12:53 am48 °FPassing clouds.No wind77%30.18 "Hg10 mi
11:53 pm
Fri, Dec 6
50 °FMostly cloudy.No wind74%30.19 "Hg10 mi
10:53 pm51 °FOvercast.No wind66%30.20 "Hg9 mi
Weather by CustomWeather, © 2019

See weather overview

Advertising